Regional Weather Roundup
Issued by NWS

Home | Current Version | Previous Version | Graphics & Text | Print | Product List | Glossary On
Versions: 1 2 3 4 5 6 7 8 9 10 11 12 13 14 15 16 17 18 19 20 21 22 23 24 25 26 27 28 29 30 31 32 33 34 35 36 37 38 39 40 41 42 43 44 45 46 47 48 49 50
000
ASUS43 KDTX 211710
RWRMI
MICHIGAN HOURLY REGIONAL WEATHER ROUNDUP
NATIONAL WEATHER SERVICE DETROIT/PONTIAC MI
1200 PM EST TUE FEB 21 2017

NOTE: "FAIR" INDICATES FEW OR NO CLOUDS BELOW 12,000 FEET WITH NO
SIGNIFICANT WEATHER AND/OR OBSTRUCTION TO VISIBILITY.

MIZ047>049-052>055-059>063-066>070-074>076-081>083-211800-
SOUTHEAST LOWER MICHIGAN

CITY           SKY/WX    TMP DP  RH WIND       PRES   REMARKS
ADRIAN         CLOUDY    51  44  77 SW7       29.96F
ALMA           CLOUDY    53  50  89 W7        29.91S FOG
ANN ARBOR      CLOUDY    50  43  77 S3        29.94F
BAD AXE        LGT RAIN  44  42  90 SW6       29.89F
CARO           RAIN      48  47  96 SW7       29.90R
DETROIT CITY   CLOUDY    50  40  68 SW7       29.96S
DETROIT        CLOUDY    51  40  65 SW7       29.96F
FLINT          LGT RAIN  49  45  86 SW9       29.93S
GROSSE ILE     CLOUDY    44  37  77 CALM      29.95F
HILLSDALE      CLOUDY    52  50  93 W6        29.94F
HOWELL         LGT RAIN  49  45  87 W5        29.92F

CITY           SKY/WX    TMP DP  RH WIND       PRES   REMARKS
JACKSON        CLOUDY    52  49  89 W7        29.94F
LAMBERTVILLE   PTSUNNY   54  43  66 W3        29.96S
LANSING        CLOUDY    54  49  83 SW8       29.93F
LAPEER         LGT RAIN  49  45  85 SW8       29.92S
MASON          LGT RAIN  51  48  89 W5        29.94F
MONROE         CLOUDY    52  44  73 W7        29.94F
MT. CLEMENS    LGT RAIN  44  39  82 S5        29.95R
PONTIAC        LGT RAIN  48  43  82 CALM      29.91F
PORT HOPE        N/A     47  43  86 SW7       29.86F
PORT HURON     CLOUDY    48  37  66 S9        29.94S
TRI CITIES     CLOUDY    50  48  93 SW8       29.90S FOG
MIDLAND        RAIN      49  47  91 W5        29.90S
TROY           LGT RAIN  49  37  64 S3        29.96S
SAGINAW HB     CLOUDY    50  45  81 SW12      29.89F
$$
MIZ043>046-050>051-056>058-064>065-071>073-077>080-211800-
SOUTHWEST LOWER MICHIGAN

CITY           SKY/WX    TMP DP  RH WIND       PRES   REMARKS
BATTLE CREEK   CLOUDY    55  52  89 SW9       29.95F
BENTON HARBOR  MOSUNNY   60  53  77 SW8       29.95S
BIG RAPIDS     CLOUDY    51  48  88 W8        29.90S FOG
COLDWATER      DRIZZLE   54  51  92 NW3       29.95F
FREMONT        CLOUDY    51  49  93 W5        29.92S
HOLLAND        FOG       49  48  97 SW8       29.95R VSB 1
GRAND RAPIDS   CLOUDY    56  51  84 W9        29.93R
IONIA          CLOUDY    55  52  90 SW12      29.91S
KALAMAZOO      CLOUDY    54  51  90 SW9       29.95S
LUDINGTON      SUNNY     50  45  81 W7        29.91R
MARSHALL       CLOUDY    53  52  96 SW8       29.95R
MOUNT PLEASANT CLOUDY    51  49  94 SW9       29.89F FOG
MUSKEGON       CLOUDY    48  46  93 W5        29.94R FOG
SOUTH HAVEN    CLOUDY    60  55  81 SW8       29.94S
$$
MIZ016>042-211800-
NORTHERN LOWER MICHIGAN

CITY           SKY/WX    TMP DP  RH WIND       PRES   REMARKS
ALPENA         MOSUNNY   50  47  89 SW8       29.85F
BEAVER ISLAND  PTSUNNY   45  44  95 SW7       29.84S
BELLAIRE       CLOUDY    51  48  89 CALM      29.87S
CADILLAC       CLOUDY    47  47  97 W12       29.89R FOG
CHARLEVOIX     MOSUNNY   51  45  80 W15       29.89R
FRANKFORT      SUNNY     49  45  85 SW6       29.90R
GAYLORD        CLOUDY    46  43  89 W6        29.85S FOG
GRAYLING       FOG       48  47  97 W8        29.87S VSB 1
HARBOR SPRINGS CLOUDY    46  45  97 W7        29.86R FOG
HOUGHTON LAKE  FOG       43  42  97 W6        29.88S VSB<1/4
MANISTEE       MOSUNNY   51  45  79 W10       29.90S
OSCODA         MIX PCPN  42  41  93 SW8       29.88S
PELLSTON       CLOUDY    46  42  86 MISG      29.85R
ROGERS CITY    PTSUNNY   53  46  79 W12       29.83F
TRAVERSE CITY  MOSUNNY   54  46  74 W13       29.86S
$$
MIZ007>008-015-211800-
EASTERN UPPER MICHIGAN

CITY           SKY/WX    TMP DP  RH WIND       PRES   REMARKS
KINROSS        FOG       41  41 100 VRB7      29.82R VSB 1/4
MACKINAC ISLAN FOG       38  38 100 W10G16    29.83R VSB<1/4 WCI  31
NEWBERRY       PTSUNNY   43  42  97 SW5       29.81S
S. S. MARIE    FOG       37  36  96 CALM      29.82R VSB 1/4
MUNISING         N/A     51  35  54 SW7       29.80R
$$
MIZ004>006-011>014-085-211800-
CENTRAL UPPER MICHIGAN

CITY           SKY/WX    TMP DP  RH WIND       PRES   REMARKS
MANISTIQUE     SUNNY     50  43  76 W10       29.82R
ESCANABA       SUNNY     53  39  59 W10       29.84R
MENOMINEE      SUNNY     53  41  63 W3        29.87S
SAWYER-GWINN   SUNNY     46  36  66 SW8       29.81R
$$
MIZ001>003-009>011-084-211800-
WESTERN UPPER MICHIGAN

CITY           SKY/WX    TMP DP  RH WIND       PRES   REMARKS
IRON MOUNTAIN  SUNNY     50  35  56 W5        29.82S
HOUGHTON       MOSUNNY   39  32  76 W24G32    29.77R WCI  28
COPPER HARBOR    N/A     43  32  65 N10G21    29.74S
IRONWOOD       SUNNY     47  35  63 SW12      29.83R
$$

ABBREVIATIONS USED IN REMARKS
   TC - TEMPERATURE IN CELSIUS
  WCI - WIND CHILL INDEX
   HX - HEAT INDEX
  VSB - VISIBILITY




USA.gov is the U.S. government's official web portal to all federal, state and local government web resources and services.